Location: ????????
(37.6846°N, 24.0673°E)
Time: 14:49:24
(UTC+00:00)

Cosmos 1814 Rocket - Pass Details

Date: 14 July 2020
Orbit: 745 x 786 km, 74.1° (Epoch: 04 August)

Event Time Altitude Azimuth Distance (km) Brightness Sun altitude
Rises 02:15:54 0° 343° (NNW) 3,195 7.5 -10.4°
Reaches altitude 10° 02:18:16 10° 344° (NNW) 2,269 6.7 -10.0°
Maximum altitude 02:23:24 79° 72° (ENE) 766 4.1 -9.2°
Drops below altitude 10° 02:28:33 10° 159° (SSE) 2,271 6.3 -8.4°
Sets 02:30:55 0° 161° (SSE) 3,197 7.0 -8.0°
